Regional Weather Roundup
Issued by NWS Wakefield, VA

Home | Current Version | Previous Version | Graphics & Text | Print | Product List | Glossary On
Versions: 1 2 3 4 5 6 7 8 9 10 11 12 13 14 15 16 17 18 19 20 21 22 23 24 25 26 27 28 29 30 31 32 33 34 35 36 37 38 39 40 41 42 43 44 45 46 47 48 49 50
000
ASUS41 KAKQ 252210
RWRAKQ

REGIONAL WEATHER ROUNDUP
NATIONAL WEATHER SERVICE WAKEFIELD VA
600 PM EDT FRI JUL 25 2014

Note: "fair" indicates few or no clouds below 12,000 feet with no
significant weather and/or obstructions to visibility. * = Denotes
station may not report precipitation (e.g., rain,snow,etc.),
thunder or fog.

VAZ042-051-052>054-056-252300-
NORTHERN VIRGINIA

CITY           SKY/WX    TMP DP  RH WIND       PRES   REMARKS
WASH NATIONAL  MOSUNNY   81  57  43 S7        30.00S
DULLES         MOSUNNY   81  53  37 W6        30.00F
FORT BELVOIR   MOSUNNY   83  57  41 W8        30.01S
QUANTICO       MOSUNNY   81  59  47 S6        30.01S
FREDERICKSBRG* SUNNY     83  60  45 S6        30.00F
STAFFORD*      SUNNY     81  58  44 CALM      30.05S
WARRENTON      PTSUNNY   83  67  57 CALM      30.01S
CULPEPER*      SUNNY    N/A N/A N/A CALM      30.01S
MANASSAS*      SUNNY     81  57  44 CALM      30.01S
LEESBURG*      SUNNY     81  59  47 CALM      30.01F
WINCHESTER     MOSUNNY   82  54  36 SW6       30.00S
$$

VAZ048-049-060>072-079>083-252300-
CENTRAL AND SOUTH CENTRAL VIRGINIA...AND NORTH CENTRAL NORTH CAROLINA

CITY           SKY/WX    TMP DP  RH WIND       PRES   REMARKS
RICHMOND       PTSUNNY   84  59  42 SE7       30.01R
CHESTERFIELD*  PTCLDY   N/A N/A N/A S6        30.03R
HANOVER        MOSUNNY   83  58  42 CALM      30.02R
TAPPAHANNOCK*  MOSUNNY   82  51  33 CALM      30.02R
CHARLOTTSVILLE SUNNY     80  61  52 SW3       30.01S
ORANGE*        SUNNY     79  59  50 CALM      30.02S
LOUISA*        MOSUNNY   81  61  50 SW3       30.01R
FARMVILLE*     MOSUNNY   82  59  44 SW6       30.00R
SOUTH HILL*    SUNNY     81  64  57 CALM      30.08R
ROANOKE RAPIDS PTCLDY    82  63  51 CALM      30.02R
RALEIGH        PTSUNNY   82  67  60 SE5       30.02S
$$

VAZ088>098-252300-
SOUTHEAST VIRGINIA

CITY           SKY/WX    TMP DP  RH WIND       PRES   REMARKS
NORFOLK        SUNNY     80  57  45 NE6       30.01R
VIRGINIA BEACH MOSUNNY   79  58  48 E9        30.01R
NORFOLK NAVAL  MOSUNNY   80  60  50 E8        30.03R
WEST POINT*    CLOUDY    83  54  37 SW3       30.03R
NEWPORT NEWS   PTSUNNY   82  61  48 E8        30.02R
LANGLEY AFB    MOSUNNY   80  61  53 E6        30.01R
FORT EUSTIS    SUNNY     82  63  51 VRB2      30.00R
WILLIAMSBURG*  MOSUNNY   86  64  48 NW5       30.02R
FRANKLIN*      SUNNY     81  59  47 CALM      30.02R
WAKEFIELD      SUNNY     83  60  45 N3        30.02R
$$

VAZ020-022-025-037-045-252300-
WESTERN AND SOUTHWEST VIRGINIA

CITY           SKY/WX    TMP DP  RH WIND       PRES   REMARKS
STAUNTON*      SUNNY     80  60  51 SE6       30.03F
HOT SPRINGS VA PTSUNNY   68  57  68 S8        30.16S
LYNCHBURG      MOSUNNY   80  63  55 S10       30.04R
DANVILLE       MOSUNNY   81  65  58 CALM      30.02R
MARTINSVILLE   MOSUNNY   86  64  47 S6        30.04S
ROANOKE        MOSUNNY   80  64  58 S9        30.04R
BLACKSBURG     MOSUNNY   79  66  65 SE8         N/A
DUBLIN*        PTSUNNY   82  57  41 CALM      30.06R
MARION*        SUNNY    N/A N/A N/A W6        30.11R
HILLSVILLE*    CLOUDY    74  63  68 S6        30.09S
RICHLANDS*     PTCLDY    78  61  55 NW5       30.10S
WISE*          MOSUNNY   73  61  64 NE7       30.12R
ABINGDON*      SUNNY     81  59  48 NW6       30.07R
$$

MDZ021>025-VAZ099-100-252300-
SOUTHERN MARYLAND AND THE DELMARVA PENINSULA

CITY           SKY/WX    TMP DP  RH WIND       PRES   REMARKS
PATUXENT RIVER MOSUNNY   78  58  49 E6        30.01R
BAY BRIDGE APT   N/A     81  48  32 SE5       29.99F
LEONARDTOWN    MOSUNNY   79  55  44 W6        30.02S
DOVER          SUNNY     80  60  49 E5        29.99R
GEORGETOWN     SUNNY     81  49  32 S9        30.00S
EASTON         SUNNY     81  55  41 CALM      30.05R
CAMBRIDGE      SUNNY     81  50  34 CALM      30.01S
SALISBURY      NOT AVBL
OCEAN CITY     SUNNY     76  65  68 SE5       30.01S
WALLOPS ISLAND SUNNY     80  55  42 SE8       30.01R
ACCOMACK*        N/A     79  54  41 N7        30.01R
$$

NCZ012>017-030>032-252300-
EASTERN NORTH CAROLINA

CITY           SKY/WX    TMP DP  RH WIND       PRES   REMARKS
ELIZABETH CITY SUNNY     80  60  50 SE9       30.03R
AHOSKIE*       PTSUNNY   80  66  62 CALM      30.02R
EDENTON*       MOSUNNY   79  66  64 E6        30.02R
CURRITUCK*     SUNNY     82  54  38 E5        30.04R
KILL DEVIL HLS SUNNY     78  60  53 E6        30.01S
MANTEO         NOT AVBL
CAPE HATTERAS  MOSUNNY   81  69  67 SE8       30.02S
GOLDSBORO      MOSUNNY   82  73  72 SE5       29.99R
WASHINGTON     MOSUNNY   82  69  65 S5        30.01R
GREENVILLE     PTSUNNY   82  70  65 CALM      30.03R
NEW BERN       CLOUDY    82  69  64 SE6       30.02S
WILMINGTON     CLOUDY    79  73  82 E7        30.01S
$$

VAZ048-252300-
ELSEWHERE

CITY           SKY/WX    TMP DP  RH WIND       PRES   REMARKS
HARRISBURG PA  MOSUNNY   80  48  32 NW6       29.99S
BALTIMORE      MOSUNNY   81  51  35 SW6       29.98F
ANNAPOLIS      SUNNY     78  55  44 E8        29.99F
ANDREWS AFB    SUNNY     82  56  41 SE5       30.00S
WILMINGTON DE  SUNNY     80  56  43 S12       30.00R
PHILADELPHIA   MOSUNNY   83  52  34 W10       29.98R
WILDWOOD NJ*   SUNNY     81  57  44 S8        30.01S
ATLANTIC CITY  SUNNY     76  64  66 SE9       30.00R
HENDERSON NC   SUNNY     80  61  53 SE5       30.03R
GREENSBORO     PTSUNNY   81  66  60 E7        30.02R
ROCKY MOUNT    PTSUNNY   82  67  60 SE3       30.01S
FAYETTEVILLE   CLOUDY    81  70  69 NE3       30.00R
CHARLOTTE      MOSUNNY   83  65  54 E7        30.01R
$$

VAZ100-252300-
MARINE

STATION/POSITION TIME  TEMP    WIND        PRES    WAVE   SWELL
                       AIR SEA DIR/SP/G            HT/PER HT/PER
                 (UTC) (F)     (DEG/KT/KT) (MB)    (FT/S) (FT/S)
44066 TX TWR #4  2200   73 76  180/  2/  4 1015.4F   2/ 4   2/ 4
CAPE MAY NJ      2200   76 79  180/  5/  6 1015.4S
LEWES DE         2200   76 77   90/  6/  7 1015.7R
15NM E FENWICK I 2200   74 77              1016.1F   2/ 5
OCEAN-CITY-INLET 2200   75 72  130/  5/  7 1015.8S
WACHAPREAGUE VA  2200   80 82  330/  3/ 10 1015.9S
THOMAS POINT MD  2200   78 80  100/  7/  8 1016.1F
GOOSES REEF MD   2200   78     110/  4/  6 1016.7S
COVE POINT MD    2200   78      CALM  /  1 1016.1R
SOLOMONS ISLAND  2200      82                N/A
BISHOPS HEAD MD  2200   79 80  230/  1/  4 1015.9R
PINEY POINT MD   2200          350/  9/ 10   N/A
POTOMAC MD       2200   77      90/  4/  8 1015.7R
CAMBRIDGE MD     2200   79 79   10/  3/  3 1015.9S
LEWISETTA VA     2200   79 79  360/  6/  9 1016.0R
RAPPAHANNOCK LGT 2200           20/  8/  9 1016.9R
STINGRAY PT      2200   77      70/  6/  8 1016.9R
YORK RVR RNG VA  2200   77     110/  5/  6 1015.9R
YORKTOWN VA      2200   78 81   90/  6/  7 1016.0R
JAMESTOWN VA     2200   79     360/  4/  6   N/A
DOMINION TERM VA 2200   78     110/  6/  8 1016.2R
KIPTOPEKE VA     2200      83  320/  2/  2   N/A
CHES BAY BRIDGE  2200   77 79   40/  4/  5 1015.8R
CAPE HENRY VA    2200   79      20/  2/  3 1015.1S
WILLOUBY STN VA  2200           80/  6/  8 1015.6R
S CRANEY ISL VA  2200          360/  2/  2 1016.3R
CAPE HENRY BUOY  2200      78                N/A     2/ 7
1ST LANDING BUOY 2200   80     330/  2/  2 1016.2R
CAPE CHARLES BUO 2200      76                N/A     2/ 7
OFFSHORE WE BUOY 2200      79                N/A     2/ 7
64NM E OF VA BCH 2200   76 78  360/  6/  8 1016.0R   3/ 7   2/ 7
DUCK PIER NC     2200   76 77   50/  6/  7 1015.8S
44056 DUCK FRF   2200                        N/A     2/ 5
OREGON INLET NC  2200   77 79   40/  6/  9 1016.6S
HATTERAS NC      2200   78 81  110/  6/ 10 1016.7F
DIAMOND SHLS NC  2200          VRB  6/  8  1016.2S   3/ 8   2/ 8
CAPE LOOKOUT NC  2100   78     110/ 10/ 11 1016.1F
$$


USA.gov is the U.S. government's official web portal to all federal, state and local government web resources and services.